Location: Newark
(36.0000°N, 138.0000°E)
Time: 20:35:44
(UTC+00:00)

Tiangong 2 - Pass Details

Date: 22 March 2019
Orbit: 378 x 389 km, 42.8° (Epoch: 22 April)

Event Time Altitude Azimuth Distance (km) Brightness Sun altitude
Exits shadow 18:33:43 18° 76° (ENE) 1,024 4.0 -27.4°
Drops below altitude 10° 18:34:45 10° 86° (E) 1,395 4.8 -27.2°
Sets 18:36:55 0° 95° (E) 2,249 5.9 -26.8°
